Regional Weather Roundup
Issued by NWS Columbia, SC

Home | Current Version | Previous Version | Text Only | Print | Product List | Glossary On
Versions: 1 2 3 4 5 6 7 8 9 10 11 12 13 14 15 16 17 18 19 20 21 22 23 24 25 26 27
000
ASUS42 KCAE 291710
RWRCAE
REGIONAL WEATHER ROUNDUP
NATIONAL WEATHER SERVICE COLUMBIA SC
100 PM EDT THU SEP 29 2016

NOTE: "FAIR" INDICATES FEW OR NO CLOUDS BELOW 12,000 FEET WITH NO
SIGNIFICANT WEATHER AND/OR OBSTRUCTIONS TO VISIBILITY.

NOT ALL STATIONS ARE QUALITY CONTROLLED BY THE NATIONAL
WEATHER SERVICE. USE DATA WITH CAUTION...ESPECIALLY
DEWPOINT OBSERVATIONS.

SCZ001>056-GAZ040-063>065-077-291800-
...UPSTATE SOUTH CAROLINA...

CITY           SKY/WX    TMP DP  RH WIND       PRES   REMARKS
ANDERSON       SUNNY     81  52  36 S12       29.96F
LIBERTY        SUNNY     80  53  37 SW5       29.96F
SPARTANBURG    SUNNY     73  59  60 CALM      29.97F
CLEMSON        SUNNY     81  51  35 VRB5      29.97F
GREENVILLE     SUNNY     81  54  39 SW7       29.97F
GREENWOOD      SUNNY     81  54  39 SW5       29.98F
GREER          SUNNY     78  58  49 SE10      29.96F
ROCK HILL      SUNNY     81  65  58 SE9       29.98F
CHESTER        SUNNY     82  57  42 S10       29.97F
LAURENS        SUNNY     81  55  41 SW8       29.97S


...CENTRAL SOUTH CAROLINA...

CITY           SKY/WX    TMP DP  RH WIND       PRES   REMARKS
COLUMBIA APT   MOSUNNY   88  60  38 S12       29.95S
COLUMBIA OWENS SUNNY     88  57  34 SW12G17   29.96F
MCENTIRE ANGB  MOSUNNY   87  64  45 S7        29.96F
ORANGEBURG     MOSUNNY   84  68  58 S10       29.97F
SUMTER SHAW    MOSUNNY   86  66  51 S9        29.95S
NEWBERRY       SUNNY     81  59  47 SW6       29.99F
AIKEN          FAIR      84  52  32 S5        30.00F
MANNING        PTSUNNY   81  70  69 S7        29.98S
LANCASTER      SUNNY     81  68  65 SE9       29.98S
WINNSBORO      SUNNY     82  61  47 SE8       29.97S


...EASTERN AND COASTAL SOUTH CAROLINA...

CITY           SKY/WX    TMP DP  RH WIND       PRES   REMARKS
MYRTLE BEACH   PTSUNNY   84  68  58 S17       30.00
N MYRTLE BCH   MOSUNNY   83  73  72 S13       29.99F
CONWAY         PTSUNNY   81  73  78 N8        29.98F HAZE
MARION         CLOUDY    73  70  88 E7        30.00F THUNDER
HARTSVILLE     CLOUDY    75  70  83 E10       29.98F
FLORENCE       MOSUNNY   80  70  71 E10       29.98F
DARLINGTON     CLOUDY    79  72  79 E10       29.99S
CHARLESTON APT PTSUNNY   85  72  65 S12       29.97F
MOUNT PLEASANT FAIR      84  75  74 S10G17    29.98F
WALTERBORO     CLOUDY    86  63  45 SW3       29.99S
BEAUFORT       MOSUNNY   88  65  46 W6        29.98F


...EASTERN GEORGIA...

CITY           SKY/WX    TMP DP  RH WIND       PRES   REMARKS
AUGUSTA BUSH F SUNNY     86  56  35 SW12      29.95F
AUGUSTA DANIEL SUNNY     87  49  26 VRB3      29.97F
THOMSON        SUNNY     88  53  29 CALM      30.00F
WASHINGTON     FAIR      86  54  32 W7        29.96F
CLAXTON        FAIR      86  64  46 CALM      29.99F
STATESBORO     SUNNY     86  59  39 SW3       29.98F
SAVANNAH       PTSUNNY   92  62  36 W9        29.99S


...SOUTHERN NORTH CAROLINA...

CITY           SKY/WX    TMP DP  RH WIND       PRES   REMARKS
CHARLOTTE      PTSUNNY   79  66  64 E12       29.99S
MONROE         PTSUNNY   75  68  78 VRB7      29.99S
WADESBORO      CLOUDY    75  68  78 E10       30.00S HAZE
RUTHERFORDTON  MOSUNNY   75  64  67 E5        29.99S
ASHEVILLE      MOSUNNY   73  54  51 S9        30.00F

$$




USA.gov is the U.S. government's official web portal to all federal, state and local government web resources and services.